RH
81 79 76 76 79 83 86 88 88 87 87 88 88 86 81 80 79 78 78 76 72 68 64 65 68 72 74 77 82 86 90 94 96 98 98 98 98 98 97 96 94 91 88 85 84 85 88 90 92 92 94 98 99 99 99 99 98 96 90 85 83 83 84 86 88 88 87 86 87 90 94 96 97 98 98 98 98 98 99 98 97 96 95 95 96 96
81 79 77 76 78 82 87 88 89 88 88 89 88 86 84 82 80 78 78 80 81 80 79 80 83 86 86 83 82 83 86 90 93 96 98 98 98 97 96 95 93 91 88 84 82 83 86 88 89 90 92 97 99 99 99 99 99 97 94 90 87 86 85 86 86 86 84 83 83 87 94 97 98 98 98 99 99 99 100 98 97 96 94 95 95 96
82 80 76 76 79 83 86 88 89 89 89 90 90 89 86 84 82 80 82 85 87 86 83 84 87 90 89 84 80 79 82 86 89 92 98 98 98 97 95 94 92 92 89 86 83 82 83 85 86 86 89 95 98 99 99 99 99 98 96 92 89 87 85 84 84 83 81 79 79 83 92 96 98 98 98 99 99 99 100 99 97 95 94 94 95 96
83 80 78 79 81 84 87 89 89 89 89 90 90 90 86 83 82 84 89 92 92 88 81 78 78 79 78 73 71 72 76 79 82 87 95 98 98 97 95 94 93 92 92 88 84 81 80 82 82 83 86 93 98 100 99 99 99 98 97 94 90 88 85 83 82 81 80 78 78 82 90 94 97 99 99 99 99 99 100 99 98 95 94 95 96 96
84 83 83 84 84 86 88 90 90 89 90 90 90 89 85 82 82 86 90 93 94 92 86 78 73 69 66 62 62 64 66 68 72 80 92 98 99 98 96 95 94 94 94 92 87 82 79 79 78 79 83 92 98 100 99 99 99 99 98 95 92 89 85 83 81 80 80 80 81 85 90 93 96 98 99 99 99 99 100 100 98 97 96 96 96 96
87 86 87 86 86 88 90 90 90 89 90 91 90 89 84 81 83 87 91 92 93 93 91 84 76 68 61 58 58 58 56 57 63 74 89 96 99 98 97 96 96 96 96 94 90 84 80 78 76 76 82 92 98 100 100 99 99 99 98 97 94 90 85 83 81 80 80 82 85 89 92 94 96 98 99 99 99 99 100 100 99 98 98 98 97 95
89 89 89 88 87 88 90 90 90 90 90 90 90 88 83 82 84 88 92 92 93 93 93 89 81 72 62 58 56 55 53 53 59 70 84 94 98 99 98 97 96 96 96 95 90 86 81 78 74 74 80 92 98 100 100 100 99 99 98 98 95 91 86 84 82 81 80 83 87 92 94 95 96 98 98 98 98 98 99 99 99 99 99 98 96 93
90 89 88 87 87 88 90 90 90 90 91 90 90 89 86 85 87 90 90 91 92 93 94 90 85 76 66 60 58 56 56 57 60 68 79 90 97 99 99 98 96 94 94 94 90 86 81 77 73 73 79 92 98 100 100 100 99 99 98 98 95 92 89 87 83 80 79 82 87 92 95 96 98 98 98 98 98 98 98 98 98 99 98 98 95 92
89 88 86 86 87 88 91 90 90 90 90 90 91 90 90 90 90 90 86 87 90 92 95 94 90 82 74 66 63 64 68 68 68 69 77 88 96 99 99 99 97 95 94 93 89 84 80 76 72 71 78 90 97 100 100 100 100 99 98 97 96 94 92 89 85 80 78 81 85 90 94 97 98 98 98 99 98 98 98 97 98 98 98 98 95 92
88 87 86 86 86 88 90 90 90 90 90 90 92 92 92 92 92 90 86 84 87 90 94 95 94 90 82 76 74 78 86 85 80 76 78 88 95 99 99 99 98 97 96 93 88 82 78 74 70 71 77 89 96 99 100 100 100 99 98 97 95 94 94 90 86 81 78 79 82 86 92 95 97 98 98 98 98 98 97 96 96 97 98 96 94 92
88 87 87 86 86 87 89 90 90 89 89 90 91 92 92 92 92 91 88 86 86 88 92 95 96 94 90 86 86 90 97 95 90 85 83 89 94 98 99 98 98 98 97 93 87 81 76 72 70 71 77 88 96 100 100 100 100 99 98 96 95 94 94 92 86 81 79 80 82 84 88 92 96 97 98 98 98 97 97 96 96 97 97 94 92 91
87 86 87 86 87 88 90 89 89 89 90 90 91 92 92 92 92 92 91 90 88 88 90 94 96 97 96 94 95 97 99 98 96 94 93 94 96 98 98 98 98 98 96 90 85 80 76 73 71 72 76 89 96 100 100 99 100 100 99 97 95 94 94 92 86 82 79 81 84 86 88 90 94 96 97 97 97 97 97 97 97 97 97 93 90 89
86 85 85 85 86 88 90 90 89 89 90 90 91 92 92 91 91 91 92 91 90 90 91 93 95 96 97 98 98 99 99 98 97 96 97 98 98 98 98 98 98 97 93 88 84 82 78 75 73 73 76 90 97 100 99 99 99 100 99 98 96 95 94 92 87 82 79 80 84 89 91 91 92 93 94 94 95 96 98 98 98 98 97 92 89 89
86 85 86 86 86 87 88 89 90 90 90 90 92 92 92 92 92 92 92 92 91 92 92 93 94 96 98 99 99 99 100 98 95 92 92 94 96 98 98 98 98 96 92 90 88 86 82 78 74 74 78 90 97 100 99 98 98 99 100 98 98 96 95 92 88 84 80 80 84 89 92 91 90 90 90 90 91 93 96 98 99 98 97 92 90 91
86 86 86 86 86 87 88 90 90 90 90 92 91 90 91 91 92 92 92 92 91 91 92 93 94 96 99 99 99 99 100 98 93 89 86 88 92 97 98 98 98 97 96 95 94 91 87 80 76 74 78 92 98 99 99 98 98 98 100 99 98 97 95 92 90 88 86 84 86 90 91 90 89 88 88 88 89 90 93 96 98 98 97 93 92 93
88 88 87 87 87 88 88 90 90 91 92 91 90 90 91 91 91 92 92 92 92 92 92 92 93 95 97 99 99 99 99 98 95 90 88 88 93 98 98 98 97 97 99 98 96 92 88 81 76 76 80 92 98 99 99 98 97 98 100 99 98 97 95 95 94 94 93 91 90 90 90 90 89 89 89 90 90 91 91 93 96 98 97 94 93 95
88 88 88 88 88 89 89 90 90 91 91 91 91 91 91 91 91 92 92 92 92 92 93 92 93 94 94 96 98 99 99 98 96 92 89 90 94 98 98 96 96 98 99 98 95 90 87 81 77 76 80 90 97 99 99 98 97 97 98 99 98 97 96 96 98 98 98 97 95 93 90 91 92 92 92 93 94 93 92 92 93 96 96 94 94 96
89 89 89 89 90 90 90 90 90 90 91 91 91 91 91 91 92 92 92 92 92 93 93 92 92 93 94 93 96 98 98 98 97 94 90 92 96 99 99 94 93 96 100 99 96 91 87 82 78 76 77 91 97 99 99 98 96 96 98 99 99 97 96 97 98 98 99 99 98 96 92 93 94 94 94 93 93 92 91 90 91 92 92 92 94 97
90 90 90 90 90 90 90 90 90 91 91 91 91 90 90 91 92 92 92 92 92 93 93 93 92 92 92 92 94 97 98 98 97 95 92 93 97 100 100 97 97 98 100 99 96 92 87 82 77 75 77 90 97 99 99 98 96 96 98 99 99 98 96 96 97 98 99 99 99 98 95 95 96 95 93 92 90 89 88 88 88 87 86 90 94 97
90 90 90 90 90 90 90 90 90 90 90 90 90 90 90 91 92 92 91 92 92 92 92 92 92 92 91 91 93 96 98 98 97 96 94 95 97 100 100 98 98 100 100 99 95 90 86 80 76 74 78 92 98 99 99 98 96 96 97 99 100 99 98 97 96 96 98 99 99 99 98 97 97 96 93 90 87 86 86 86 87 86 85 89 93 97
89 89 89 90 90 90 90 90 90 90 90 90 90 90 90 91 92 92 92 92 92 92 92 92 92 90 89 91 94 97 98 98 98 97 96 96 97 99 100 99 99 100 100 100 96 92 86 79 74 74 80 94 98 99 100 99 98 97 98 99 99 100 99 98 97 97 99 99 99 99 98 97 96 95 93 89 85 83 83 85 87 87 87 89 92 95
88 89 89 89 89 90 90 90 89 88 88 88 90 90 90 91 91 91 91 91 91 92 92 91 90 89 90 92 96 98 98 98 99 99 98 97 98 99 100 100 100 100 100 99 97 93 87 80 75 75 82 92 98 99 100 99 99 98 98 98 99 99 100 99 98 98 100 100 99 98 98 96 95 94 92 88 84 81 78 82 86 88 87 87 89 92
88 89 90 89 89 90 90 89 88 87 88 89 90 90 90 90 90 90 90 90 90 90 90 89 88 89 92 94 96 97 98 98 99 99 100 98 98 99 100 100 100 100 100 98 96 93 88 81 76 76 82 92 97 99 100 100 99 98 98 98 98 99 100 99 99 99 99 99 99 98 96 94 92 90 88 87 85 81 76 77 81 86 88 87 89 92
89 89 89 90 89 89 89 89 88 88 89 90 90 90 90 90 90 90 90 90 90 90 89 88 89 90 92 94 96 97 98 98 98 99 99 98 98 98 99 100 100 100 100 98 96 94 90 83 78 78 82 92 96 98 100 100 99 98 97 98 98 98 99 99 100 99 99 99 99 98 96 93 89 85 83 84 84 83 79 74 76 81 88 88 90 93
89 89 89 89 89 89 89 89 90 90 90 90 90 90 90 90 90 90 90 90 90 90 90 90 90 90 90 94 96 97 97 97 98 98 98 98 98 98 100 100 100 100 100 98 96 94 93 86 82 80 83 91 96 99 99 100 99 99 98 98 98 98 98 99 99 100 99 99 99 99 98 96 92 87 82 81 82 84 84 77 73 74 83 87 90 94
89 89 89 89 89 89 90 89 90 90 90 90 90 90 90 90 90 90 90 90 90 90 90 90 90 90 92 94 96 97 97 97 98 98 99 99 99 99 100 100 100 100 100 99 95 92 94 88 85 83 84 90 96 99 99 99 98 98 99 99 98 98 98 98 99 99 100 99 100 100 100 100 98 94 88 84 82 84 87 85 79 74 76 84 90 94
86 86 88 88 89 89 89 89 88 88 88 89 90 90 90 90 90 90 90 90 90 90 90 90 90 91 92 94 96 96 97 98 98 98 99 99 100 100 100 100 100 100 100 100 96 92 94 90 88 86 86 90 95 98 98 98 97 96 99 99 99 98 97 98 98 99 99 99 100 100 100 100 100 98 96 90 87 86 88 92 90 85 81 86 92 95
83 84 84 86 88 89 89 89 88 88 88 88 89 90 90 90 90 90 90 90 90 90 90 91 92 92 92 93 94 96 97 98 98 98 99 100 100 100 100 100 100 100 100 100 98 96 95 94 91 89 89 91 94 96 97 98 97 97 97 99 99 98 97 98 98 99 99 99 99 100 100 100 100 99 98 94 92 90 91 94 95 94 92 93 94 96
83 84 85 86 88 89 89 88 88 88 88 89 90 90 90 90 90 90 90 90 90 90 90 91 92 92 92 92 94 96 97 97 98 98 99 100 100 100 100 100 100 100 100 100 100 99 98 96 93 90 90 92 93 94 94 96 97 97 96 98 99 99 98 98 99 99 98 98 99 99 100 100 100 100 99 96 93 92 93 94 94 94 94 95 95 96
85 85 86 87 88 89 89 88 88 88 88 89 90 90 90 90 90 90 90 89 90 90 90 90 91 92 92 93 94 96 96 97 98 98 99 100 100 100 100 100 100 100 100 100 100 100 100 98 95 92 90 92 92 92 92 95 96 96 96 98 99 99 98 98 99 99 99 99 99 99 99 99 100 100 100 98 96 95 94 94 94 94 94 95 96 97
87 87 87 87 88 88 89 89 89 89 89 90 90 90 90 90 90 90 90 89 90 90 90 90 92 92 92 93 94 95 96 97 98 98 99 100 100 100 100 100 99 99 99 100 100 100 100 99 98 95 92 92 92 92 92 93 95 96 96 96 98 99 98 98 98 99 99 99 99 98 98 99 99 100 100 100 99 98 98 97 97 97 98 98 99 99
88 88 88 88 88 88 88 88 89 89 89 90 90 90 90 90 90 90 90 90 90 90 90 90 92 92 93 93 94 94 95 97 98 98 99 99 100 100 100 100 100 99 99 100 100 100 100 100 98 97 96 96 94 92 91 92 94 95 95 94 96 98 99 98 98 98 99 99 99 98 98 98 99 99 100 100 100 100 100 100 100 100 100 100 100 100
88 88 88 88 88 88 88 88 89 89 89 90 90 90 90 90 90 90 90 90 90 90 90 91 92 93 94 94 94 95 96 97 98 98 98 99 100 100 100 100 100 100 100 100 100 100 100 100 99 98 99 99 98 96 92 90 92 94 94 92 93 96 99 98 98 98 98 99 99 99 99 99 99 99 100 100 100 100 100 100 100 100 99 99 100 100
88 88 88 88 88 88 89 89 89 89 89 90 90 90 90 90 90 90 90 90 90 90 90 92 92 93 94 94 95 96 96 97 97 98 98 99 100 100 100 100 100 100 100 100 100 100 100 100 99 99 99 99 99 98 96 90 90 92 95 91 91 94 98 99 99 99 98 99 100 100 100 99 99 100 100 100 100 100 100 100 100 99 98 98 99 99
88 88 88 88 88 88 89 89 89 89 90 90 90 90 90 91 91 91 90 90 90 90 90 92 93 94 94 94 95 96 96 97 97 98 98 99 99 100 100 100 100 100 100 100 100 100 100 100 100 100 100 99 99 99 98 92 90 90 94 90 90 92 97 99 99 99 99 99 100 100 100 100 99 99 100 100 100 100 100 100 100 100 99 98 98 98
88 88 88 88 88 88 89 89 89 90 90 90 90 90 91 92 92 92 92 91 91 92 92 92 93 94 94 95 95 96 96 97 97 98 98 99 99 100 100 100 100 100 100 100 100 100 100 100 100 100 99 99 99 99 99 95 92 90 90 90 90 92 96 98 99 99 99 99 100 100 100 100 99 99 99 100 100 100 100 100 100 100 100 99 99 98
88 88 88 88 88 88 89 89 90 90 90 90 90 91 92 92 92 92 92 92 92 92 92 93 94 94 95 95 96 96 96 97 97 98 98 99 99 100 100 100 100 100 100 100 100 100 100 100 100 100 99 98 98 100 100 98 96 94 91 90 90 92 95 98 98 98 99 99 100 100 100 100 99 98 98 99 100 100 100 100 100 100 100 100 100 100
88 88 88 88 88 89 89 89 90 90 90 90 90 92 92 92 92 92 92 92 92 92 93 93 94 94 95 95 96 96 96 97 98 98 98 99 99 100 100 100 100 100 100 100 99 99 100 100 100 100 99 96 96 98 99 98 98 97 94 92 92 92 95 97 98 98 99 99 100 100 100 100 98 98 98 100 100 100 100 100 100 100 100 100 100 100
88 88 88 88 88 89 89 89 90 90 90 90 91 92 92 92 92 92 93 93 93 93 93 94 94 95 95 95 96 96 97 97 98 98 98 99 99 100 100 100 100 100 100 100 99 99 100 100 100 100 100 97 96 97 99 98 98 97 96 93 92 92 94 97 98 98 98 99 100 100 100 100 99 99 99 100 100 100 100 100 100 100 100 100 100 100
87 88 88 88 88 89 89 89 90 90 90 90 91 92 92 92 92 93 93 93 93 94 94 94 94 95 95 96 96 97 97 98 98 98 99 99 100 100 100 100 100 100 100 100 99 99 99 100 100 100 100 99 98 97 99 98 97 94 92 92 92 93 94 97 98 98 97 99 99 99 100 100 100 100 100 100 100 100 100 100 100 100 100 100 100 100
87 88 88 88 89 89 89 89 90 90 90 90 91 92 92 92 92 93 93 93 94 94 94 95 95 96 96 96 96 97 97 98 98 98 98 99 100 100 100 100 100 100 100 100 100 99 100 100 100 100 100 100 98 97 97 97 95 93 90 90 92 92 94 97 98 98 98 98 98 99 99 100 100 100 100 100 100 100 100 99 99 100 100 99 98 98
87 87 88 88 88 89 89 90 90 90 90 90 91 92 92 92 92 93 93 94 94 94 94 95 95 96 96 96 96 96 97 97 98 98 98 99 100 100 100 100 100 100 100 100 100 100 100 100 100 100 100 100 99 98 96 94 93 92 90 88 88 89 92 96 98 99 98 97 97 98 99 99 100 100 100 100 100 100 100 99 99 99 100 99 98 97
87 87 88 88 88 89 89 90 90 90 90 90 91 92 92 92 92 93 93 93 94 94 94 94 95 95 95 96 96 96 97 97 98 98 98 99 99 100 100 100 100 99 100 100 100 99 100 100 100 100 100 100 100 99 98 95 93 91 88 85 82 82 85 92 97 99 98 97 97 98 98 99 100 100 100 100 100 100 100 100 100 100 100 99 99 98
87 87 88 88 89 89 89 90 90 90 90 90 91 92 92 92 92 93 93 93 94 94 94 94 95 95 95 96 96 96 97 98 98 98 98 99 99 100 100 100 99 99 99 100 100 100 100 100 100 100 100 100 100 98 96 95 94 92 88 84 81 80 82 89 94 97 96 95 96 98 98 98 99 100 100 99 99 100 100 100 100 100 100 100 99 98
87 87 88 88 88 89 89 89 90 90 90 90 91 92 92 92 93 93 93 94 94 94 94 94 94 95 95 96 96 96 97 97 98 98 99 99 99 100 100 100 100 100 100 100 100 100 100 100 100 100 100 100 100 99 98 96 95 94 91 85 82 82 83 86 90 92 93 92 94 96 98 98 99 99 99 99 99 99 100 100 100 100 100 100 98 98
87 87 88 88 88 89 89 89 90 90 90 90 91 92 92 92 93 93 93 94 94 94 94 94 94 95 95 96 96 96 97 97 98 98 99 99 100 100 100 100 100 100 100 100 100 100 100 100 100 100 100 100 100 100 100 99 98 96 92 86 82 81 83 86 88 90 90 90 92 94 98 98 98 98 99 99 99 100 100 100 100 100 100 100 98 97
87 87 88 88 88 89 89 90 90 90 90 90 91 92 92 92 93 93 93 94 94 94 94 94 95 95 95 96 96 96 97 98 98 98 99 99 100 100 100 100 100 100 100 100 100 100 100 100 100 100 100 100 100 100 100 100 99 98 94 89 84 80 81 86 89 90 90 92 92 94 97 98 98 98 99 99 100 100 99 99 100 100 100 100 99 98
87 87 88 88 88 89 89 89 90 90 90 90 91 92 92 92 93 93 93 94 94 94 94 95 95 95 96 96 96 96 97 98 98 98 99 99 100 100 100 100 100 100 100 100 100 100 99 100 100 100 100 100 100 100 100 100 100 98 96 92 86 82 80 85 89 92 92 93 94 96 97 97 98 98 98 99 99 99 99 99 99 99 99 100 99 99
87 88 88 88 88 89 89 90 90 90 90 90 91 92 92 92 92 93 93 94 94 94 94 94 95 95 96 96 96 96 97 98 98 98 99 99 99 100 100 100 100 100 100 100 100 100 100 100 100 100 100 100 100 100 100 100 100 99 97 94 90 85 81 83 86 89 90 92 95 97 98 97 98 98 98 99 99 99 99 99 99 99 99 99 100 100
88 88 88 88 89 89 89 90 90 90 90 90 90 91 92 92 92 93 93 94 94 94 94 94 95 95 95 96 96 96 97 97 98 98 98 99 99 100 100 100 100 100 100 100 100 100 100 100 100 100 100 100 100 100 100 100 100 100 99 98 95 90 84 83 83 85 88 91 94 96 97 96 96 96 98 99 99 99 99 99 99 99 99 99 99 99
88 88 88 88 89 89 89 90 90 90 90 90 90 91 92 92 92 92 93 93 94 94 94 94 94 95 95 95 96 96 96 97 97 97 98 98 99 99 100 100 100 100 100 100 100 100 100 100 100 100 100 100 100 100 100 100 100 100 100 100 99 96 90 87 84 84 88 92 94 95 95 94 94 94 95 98 99 99 99 99 99 99 99 99 99 99
Wind_Speed
21 22 23 22 22 22 22 21 20 20 22 23 24 24 23 22 20 19 17 16 16 17 19 20 21 22 23 23 22 20 18 16 15 15 16 17 19 20 22 23 23 25 26 28 32 37 41 39 32 23 18 17 20 25 29 34 37 38 38 36 36 36 37 37 37 35 33 31 33 37 45 51 55 55 53 52 51 51 50 51 51 51 50 49 48 47
22 22 22 22 22 22 22 21 20 20 22 24 25 24 23 22 21 19 17 14 14 14 16 18 20 21 22 23 22 21 18 17 16 15 15 16 18 21 22 23 23 24 25 27 30 35 39 40 35 26 18 14 16 20 25 32 37 39 38 36 35 35 36 37 38 37 35 32 31 33 40 48 52 53 50 49 48 47 47 48 48 48 48 47 46 45
23 23 23 22 21 21 21 21 21 21 22 24 24 24 23 23 22 20 17 15 14 14 16 18 20 21 22 22 22 20 18 17 17 16 16 16 18 20 22 22 22 23 24 26 28 32 38 41 39 31 21 14 13 16 22 30 36 39 38 37 35 35 35 36 37 38 37 35 33 33 37 44 49 49 47 46 45 45 46 46 47 47 46 46 45 45
22 22 22 22 22 21 21 21 22 22 23 23 24 24 23 23 22 20 18 16 15 15 16 19 21 23 23 23 21 19 18 17 17 16 17 17 19 21 22 22 22 22 23 24 26 30 35 40 41 35 25 17 13 14 20 28 35 39 39 38 36 35 35 35 36 37 38 38 36 35 36 41 45 47 45 44 44 44 45 46 47 47 46 45 44 44
22 22 22 22 22 22 22 22 22 22 23 23 24 24 24 23 21 19 18 16 16 16 17 19 22 24 25 23 21 19 17 17 16 17 17 19 20 21 21 22 21 21 21 22 24 28 32 38 41 38 28 18 14 14 20 28 35 39 40 38 37 35 35 35 35 37 38 39 39 38 38 40 44 46 45 44 43 42 42 44 45 46 45 45 44 45
23 22 22 22 22 22 22 22 21 21 22 23 24 25 25 23 20 18 17 17 17 17 17 19 21 24 24 23 21 19 18 17 17 17 18 20 20 21 21 21 21 21 21 21 23 26 30 36 40 39 30 20 14 14 20 27 34 39 40 39 37 36 35 35 35 36 37 40 41 41 40 40 43 45 46 45 43 41 40 41 43 44 45 45 46 46
24 23 22 21 22 22 22 21 20 20 21 22 24 25 25 22 20 19 18 17 17 17 16 17 19 21 22 22 21 20 18 17 17 17 19 20 21 21 20 21 21 21 21 21 22 24 28 34 39 39 31 20 14 13 19 26 34 39 41 40 38 36 36 36 36 36 37 39 41 42 42 42 43 44 45 44 43 42 41 41 41 43 45 46 47 47
24 23 22 21 22 22 21 20 20 19 20 22 24 25 25 23 22 20 19 17 16 15 15 16 17 19 20 21 20 20 19 18 17 17 18 20 20 20 20 20 21 22 22 22 22 24 27 32 38 38 31 20 13 12 18 25 33 39 41 41 39 37 37 37 37 37 37 38 40 42 43 44 44 45 45 44 43 42 42 42 42 42 44 46 48 48
23 22 22 21 22 21 21 20 19 19 20 21 23 24 24 24 23 22 20 17 15 15 14 15 16 18 19 19 19 19 19 18 17 17 18 19 20 20 20 21 22 23 23 23 23 24 26 31 37 38 32 20 13 11 17 25 32 38 41 41 40 38 38 38 38 38 37 38 39 41 43 45 46 46 45 43 42 43 44 44 44 43 43 45 47 48
22 21 21 21 21 20 20 20 20 20 21 21 21 21 20 21 23 24 23 19 17 15 14 14 14 15 17 18 18 19 19 18 17 17 17 18 19 19 20 22 23 23 23 23 23 24 26 31 36 38 33 21 14 12 17 25 32 36 40 41 40 39 39 39 39 38 38 38 39 41 43 45 46 46 45 44 43 44 45 45 46 46 45 45 46 47
21 21 20 21 20 19 19 19 19 20 21 21 20 19 18 19 21 24 25 22 19 16 15 14 13 13 14 16 18 18 18 17 16 15 15 16 17 19 21 22 22 22 22 22 22 22 25 30 35 38 34 23 15 12 17 25 31 35 39 41 40 40 39 39 39 38 38 38 40 41 43 45 46 46 45 44 44 45 46 46 47 48 48 47 46 46
20 20 20 20 20 19 18 19 19 19 19 19 19 19 19 19 21 23 24 24 22 19 17 14 12 11 12 14 15 15 14 13 12 11 12 13 15 17 19 19 19 19 20 20 19 20 24 28 34 38 36 24 14 9 15 24 30 33 38 40 40 40 39 39 39 38 37 37 39 41 44 45 47 47 45 44 45 46 47 48 49 50 50 49 48 46
20 19 19 19 19 19 18 18 18 18 18 18 18 19 20 21 22 22 23 23 22 21 19 16 13 10 10 10 10 10 11 11 11 10 10 12 14 15 15 14 15 17 18 17 16 17 21 27 33 38 36 23 11 6 14 25 29 31 35 38 39 39 39 39 38 37 36 36 38 40 42 45 46 47 47 46 46 47 48 49 50 51 51 50 49 47
19 19 19 19 19 18 18 18 18 18 18 18 19 20 20 21 22 22 23 23 22 21 19 17 14 10 7 5 6 9 10 11 12 12 13 14 14 14 13 12 14 17 17 15 15 16 20 25 32 37 35 21 9 4 12 23 28 30 33 36 38 39 39 38 37 36 36 36 37 39 41 42 44 46 47 47 48 48 49 49 50 51 51 51 50 49
19 19 19 19 19 18 17 18 18 19 19 19 20 21 21 20 21 22 23 24 23 22 20 18 15 10 6 3 6 9 10 11 13 15 16 16 16 13 11 11 15 17 17 16 15 17 20 25 32 37 33 18 8 4 10 22 28 29 31 34 37 38 38 38 37 36 36 37 38 39 39 40 41 43 46 47 49 50 51 50 50 50 51 52 51 50
19 18 19 19 19 19 18 18 18 19 19 20 20 20 20 20 21 22 23 23 23 23 22 21 17 11 6 4 5 8 9 11 13 16 18 18 16 12 10 13 17 18 17 17 17 18 21 26 32 36 32 18 8 5 9 20 27 29 30 34 36 38 39 38 37 37 37 38 39 39 39 38 38 40 42 45 47 49 51 51 51 50 50 51 50 49
19 19 19 19 20 19 19 18 19 19 19 20 20 20 20 20 21 22 22 22 22 22 22 22 21 18 12 7 6 6 7 9 12 16 18 19 15 10 10 15 18 18 16 16 18 20 22 26 32 36 32 19 9 5 8 19 26 29 30 33 36 39 40 39 38 38 38 38 39 40 39 37 36 37 39 41 43 46 47 49 50 50 49 48 47 47
19 19 19 20 20 20 19 19 19 19 19 19 19 20 20 20 20 20 20 20 20 20 21 21 21 20 18 14 8 5 6 8 10 14 17 18 14 9 11 16 18 17 14 15 17 20 22 26 32 35 32 18 7 2 6 18 26 29 31 33 36 39 40 39 39 38 38 38 39 40 40 38 37 37 38 39 40 41 42 44 46 47 46 44 43 44
20 19 19 19 20 20 20 20 19 19 19 19 20 21 21 21 20 19 19 19 19 19 20 21 21 21 20 18 12 7 7 8 10 12 15 17 12 8 12 17 18 16 14 14 17 20 23 26 32 34 29 16 4 2 4 17 26 29 30 32 35 39 40 40 39 39 38 38 39 40 41 40 39 39 39 39 39 38 38 39 41 43 43 41 40 41
21 20 20 20 20 21 21 20 19 19 19 20 21 21 21 21 20 19 19 19 19 20 21 22 23 23 22 18 11 8 7 7 9 11 14 16 10 6 12 18 17 14 13 15 17 20 22 26 31 33 28 14 1 4 3 15 25 28 28 30 33 37 40 40 40 39 37 37 39 41 41 41 41 41 41 40 39 37 36 37 39 41 41 40 38 37
22 22 21 20 20 20 21 21 21 20 21 21 21 21 21 21 20 19 19 19 20 21 22 23 24 23 20 16 11 7 6 6 8 10 12 14 10 5 9 15 14 11 11 15 17 20 23 27 32 33 28 15 2 5 4 12 22 26 27 28 31 35 38 40 40 39 36 36 38 41 42 42 42 42 42 41 40 38 36 36 38 40 41 41 39 37
22 22 21 20 20 21 22 23 23 23 22 21 20 20 20 20 21 21 21 21 21 22 23 25 24 22 18 15 10 7 6 7 8 9 9 11 9 6 7 13 14 10 7 14 18 19 23 27 32 34 30 19 6 3 5 8 17 23 25 26 29 32 35 39 40 39 36 36 38 41 41 41 41 42 42 41 40 39 38 37 38 40 43 43 42 39
22 21 21 20 21 22 23 24 25 24 21 19 19 19 20 21 22 23 23 23 23 23 24 25 23 19 16 14 9 6 7 7 7 8 9 10 8 4 8 13 14 10 6 13 18 20 23 28 33 35 32 23 11 1 6 6 12 19 23 25 26 29 33 37 39 39 38 37 38 39 40 40 41 41 41 41 41 40 40 39 39 40 42 44 44 42
21 21 21 21 22 23 23 24 23 22 20 20 20 20 21 22 23 23 23 23 23 23 24 23 21 19 17 13 8 5 7 7 7 8 10 12 8 2 8 13 12 8 7 13 19 21 23 28 33 35 33 26 15 4 5 7 8 15 21 24 25 27 30 35 39 40 40 39 39 39 39 39 40 41 42 42 41 41 41 42 41 41 41 43 44 44
20 20 21 21 22 22 22 22 21 21 20 20 20 21 22 22 22 21 21 21 21 21 21 21 21 21 17 11 6 4 5 3 4 7 10 11 7 2 8 12 10 6 5 12 18 21 23 27 31 34 33 27 18 7 4 7 6 9 17 24 26 27 30 33 38 41 41 41 40 40 39 39 40 41 42 42 42 42 43 44 44 43 41 41 43 44
19 19 20 20 21 21 20 20 20 19 19 19 20 20 21 21 20 20 19 19 18 18 19 19 21 20 15 11 7 5 3 1 4 7 8 9 5 1 7 10 8 5 5 11 17 21 22 24 29 32 32 28 20 9 4 6 5 6 11 21 27 29 30 33 36 40 42 42 42 41 39 39 40 41 42 43 43 43 45 46 47 46 44 43 43 44
19 18 19 19 19 19 18 18 18 18 17 17 17 17 17 18 18 18 17 17 17 17 18 19 20 19 15 11 8 5 3 2 3 5 7 7 4 2 4 6 5 5 7 12 16 19 20 22 25 28 29 27 22 13 5 3 3 4 7 15 23 29 32 33 36 39 41 42 42 41 39 39 39 40 41 42 43 44 46 47 48 47 46 45 44 44
18 17 17 16 16 16 16 16 15 15 15 15 14 14 14 15 15 16 15 16 16 17 17 18 18 18 17 14 8 4 4 4 3 4 6 5 4 2 4 4 5 7 9 13 15 16 18 19 21 23 24 23 21 16 10 5 4 4 6 10 16 25 32 35 37 38 40 41 41 40 39 38 39 40 41 42 42 44 45 46 47 46 45 44 43 42
16 15 14 14 13 14 14 14 14 14 14 13 12 11 12 13 14 14 14 15 16 16 16 16 16 17 17 13 8 3 5 6 4 3 4 4 4 2 2 4 7 10 12 15 16 15 15 16 18 19 18 18 18 17 14 10 7 6 6 9 12 18 28 35 38 39 39 40 40 40 39 38 38 39 40 41 42 43 44 44 44 43 42 41 39 38
13 12 11 11 11 11 12 13 13 13 12 11 11 11 11 13 14 15 15 15 15 15 16 15 15 15 15 12 8 4 3 3 3 3 4 3 3 2 1 4 8 12 15 16 16 16 16 15 16 16 15 14 14 15 16 14 11 8 7 8 10 14 22 31 37 39 40 41 41 40 39 38 38 38 39 40 41 41 42 42 42 41 40 39 37 36
11 10 9 9 9 10 10 10 11 10 10 10 10 11 11 13 14 15 15 15 15 14 15 14 14 13 13 12 11 9 5 2 1 2 3 3 2 2 2 4 8 12 15 14 13 15 18 17 16 15 13 13 12 13 15 16 14 10 7 7 10 12 16 25 33 38 40 41 42 42 40 38 38 37 38 39 39 39 40 40 40 39 39 38 36 35
9 9 9 9 9 9 9 9 9 9 9 9 9 10 11 12 13 13 14 14 14 13 13 12 12 11 10 10 11 11 8 5 2 2 3 3 2 2 2 3 6 9 13 14 12 13 16 18 18 16 14 13 12 13 14 16 16 12 8 6 8 11 13 20 28 34 37 38 40 40 39 37 36 36 36 37 37 38 38 38 38 38 37 37 36 35
10 10 10 10 10 9 9 8 8 8 8 9 9 9 10 10 11 11 12 13 12 11 10 10 10 10 9 9 9 8 6 5 3 1 2 2 2 3 3 2 5 8 11 14 15 15 15 19 20 18 16 15 13 13 13 15 16 14 10 7 7 9 12 16 23 30 35 36 37 37 35 33 32 32 33 34 35 36 37 37 37 36 36 36 36 35
12 12 12 11 10 9 8 7 7 7 8 8 8 9 9 9 9 10 10 10 9 8 6 7 9 9 9 8 7 6 5 4 2 1 2 2 2 3 4 2 3 7 11 14 17 18 19 21 22 21 19 17 15 13 12 14 15 15 11 8 6 6 9 11 18 26 32 33 33 33 31 29 28 28 28 30 31 33 35 36 36 35 35 35 35 35
14 13 13 12 11 10 9 8 7 7 7 7 7 7 7 7 7 8 8 7 6 5 4 5 6 7 7 7 6 5 4 3 1 1 1 1 1 3 4 3 3 6 10 14 18 20 22 23 24 23 21 19 17 14 13 13 14 15 13 10 7 4 4 7 12 21 29 31 30 30 29 29 28 27 27 27 27 29 31 33 34 34 34 34 34 35
16 15 14 13 12 12 11 9 8 7 6 6 6 5 5 5 5 6 5 5 4 3 3 3 4 4 4 5 6 6 6 4 2 1 0 0 2 3 4 4 3 5 9 13 17 20 21 22 23 24 23 20 17 14 13 12 14 14 14 11 8 5 2 4 7 15 24 30 30 29 29 29 30 30 29 27 26 25 27 30 32 33 33 33 33 34
17 17 16 15 14 13 12 11 9 8 7 6 4 3 3 3 4 4 4 3 3 3 2 2 2 2 3 4 5 6 6 4 3 1 1 1 2 4 4 5 4 4 7 11 16 19 21 21 22 22 22 21 18 14 13 13 14 14 15 13 11 7 4 3 6 12 19 27 30 30 29 30 31 32 31 29 27 25 26 28 30 31 32 32 32 32
19 18 17 15 14 13 13 12 11 10 9 7 5 4 3 3 3 3 3 3 2 2 1 1 1 2 3 4 5 5 5 4 2 2 2 2 3 4 5 7 6 3 5 9 14 18 20 21 21 21 23 22 19 15 14 15 15 15 16 15 14 11 6 4 6 10 16 22 28 31 31 31 31 32 32 31 29 27 27 28 30 30 31 31 30 30
20 19 18 16 15 14 13 13 12 10 9 8 7 6 5 3 3 2 3 3 2 2 2 2 3 3 3 4 5 5 4 3 2 1 2 2 3 5 6 7 7 4 3 6 11 15 18 19 19 19 21 21 20 17 15 16 17 17 17 17 17 14 8 4 5 8 13 18 24 29 31 32 32 33 32 31 30 29 29 30 31 31 32 31 30 29
22 20 18 16 15 14 13 13 12 11 10 10 9 7 6 4 3 2 2 2 2 2 3 3 3 4 4 4 4 4 4 3 2 1 1 2 3 4 6 7 7 5 2 4 8 12 15 17 18 19 19 20 20 19 17 17 17 18 19 19 18 17 12 7 5 7 10 13 19 26 30 32 33 33 33 31 30 29 30 31 32 32 32 32 31 30
23 21 19 17 15 14 13 13 13 12 12 11 11 10 8 6 4 3 2 2 2 2 3 3 3 3 3 3 4 4 4 4 3 2 1 1 3 4 5 7 8 6 2 3 5 9 13 16 19 20 20 20 21 21 19 17 17 18 19 20 20 19 15 10 7 6 8 10 15 22 28 31 32 33 33 31 30 29 30 31 32 32 32 32 32 32
24 22 21 18 16 15 15 14 13 13 13 13 13 12 11 9 7 5 4 3 2 3 4 4 4 3 3 4 5 4 4 3 3 2 1 0 2 4 5 6 7 7 4 1 3 6 12 16 19 20 21 22 23 23 20 18 17 17 18 19 20 19 17 11 7 6 6 7 12 20 27 31 32 33 33 32 30 29 29 30 31 31 31 31 31 31
25 24 21 19 17 16 16 15 15 15 14 14 14 13 11 10 8 7 6 5 4 4 4 4 4 4 4 4 4 4 4 3 2 2 1 0 2 4 5 6 7 7 6 2 1 4 9 14 17 19 21 22 23 24 22 21 20 18 18 17 18 19 17 13 9 7 5 6 10 17 26 31 33 33 33 32 31 30 29 30 30 30 30 29 29 29
26 24 22 20 18 18 17 17 17 16 16 16 15 14 12 10 9 8 7 6 5 4 4 5 5 5 4 3 3 3 3 2 1 1 0 1 2 4 5 7 7 7 7 4 2 4 6 9 14 18 21 22 23 24 24 23 22 21 19 17 17 17 18 16 13 10 7 6 8 13 23 29 32 32 32 31 31 30 30 30 29 29 28 28 28 28
26 25 23 22 20 19 19 19 18 18 17 16 16 14 13 11 10 9 8 7 6 5 6 6 6 6 4 3 2 2 2 2 2 1 1 2 3 4 6 7 8 8 8 6 3 4 5 7 11 17 21 23 24 24 24 24 23 22 21 19 18 17 16 16 14 12 10 9 7 10 19 26 31 32 32 31 31 30 30 29 29 28 27 27 27 27
27 26 25 23 22 21 21 20 19 19 18 17 16 15 14 12 11 10 9 8 7 7 7 8 8 8 7 5 4 3 4 4 3 3 3 4 4 5 7 8 8 8 9 8 6 3 4 6 12 18 22 25 25 25 24 24 24 24 23 22 20 18 16 15 15 14 13 11 9 9 13 21 28 32 33 33 32 32 31 30 28 27 26 26 26 26
28 28 27 25 24 22 21 20 20 20 19 19 18 16 15 13 12 11 9 9 8 8 8 8 9 9 8 7 6 5 5 6 6 5 5 6 6 7 8 9 9 9 9 9 8 6 3 5 12 19 24 26 27 27 25 25 25 25 25 23 22 21 20 18 17 16 14 13 11 10 11 16 23 30 34 34 33 32 31 30 29 28 26 26 25 24
29 29 28 27 25 23 22 22 21 21 20 20 19 17 16 14 13 12 11 10 9 9 9 10 10 9 8 7 7 6 6 6 7 8 8 8 8 9 10 10 10 9 9 8 8 7 5 5 11 19 25 28 29 28 27 26 26 26 26 25 24 23 23 22 20 18 15 14 13 12 10 12 17 25 32 34 35 34 33 32 31 29 28 26 25 24
30 29 29 28 26 25 23 23 22 22 21 20 20 18 17 15 14 13 12 11 10 10 11 11 10 9 8 8 7 6 6 6 8 9 10 11 11 11 11 11 11 11 10 9 8 7 6 6 11 19 25 27 29 29 28 27 27 27 27 26 25 25 25 24 22 20 19 17 16 14 12 10 11 17 26 32 35 36 35 34 33 32 30 28 26 25
30 30 30 29 28 26 25 24 23 23 22 21 21 19 18 16 15 14 13 12 11 11 11 11 11 10 9 8 7 6 6 6 8 10 11 13 13 13 13 13 13 12 12 10 9 8 7 8 13 18 23 26 27 28 29 29 28 27 27 27 27 27 26 26 24 23 21 20 19 17 14 11 9 10 18 26 33 36 36 36 36 35 33 31 29 28
31 31 31 30 29 27 26 25 24 23 23 22 21 20 19 18 16 15 14 13 12 12 11 11 11 11 11 10 8 7 7 6 7 9 11 13 14 15 15 14 14 13 13 12 11 10 10 11 14 16 20 23 25 27 28 29 29 29 28 28 28 28 28 28 27 25 24 22 21 18 16 13 11 10 13 20 28 35 37 38 38 38 37 36 34 33
Wind_Direction
308 309 311 313 314 313 311 311 312 313 313 313 314 314 313 309 303 295 287 279 271 265 261 261 265 269 273 274 273 272 271 267 261 249 235 229 223 220 221 225 230 235 240 244 242 239 237 238 239 236 224 213 206 204 206 208 210 213 216 217 218 219 219 218 218 219 222 224 225 223 218 214 211 209 206 205 203 202 201 203 205 207 208 210 212 214
310 310 311 313 314 313 311 311 312 313 314 314 315 316 316 313 307 299 290 278 269 264 263 264 267 271 274 274 273 271 271 270 269 263 251 237 228 224 225 228 232 237 242 246 245 243 241 240 240 240 237 229 218 212 211 210 210 211 214 216 217 217 218 218 218 219 220 223 225 222 215 210 208 207 205 204 203 202 201 202 204 207 209 211 213 215
311 312 312 313 313 312 311 311 312 313 313 314 315 317 317 315 310 303 294 283 270 260 258 259 262 266 267 268 268 268 268 270 271 267 256 241 230 226 228 230 234 238 243 246 248 246 244 242 241 241 244 247 239 225 217 212 210 210 212 214 215 216 217 218 218 218 219 221 223 221 215 209 207 206 204 202 202 203 204 206 208 211 212 213 214 216
311 312 312 313 313 312 311 311 312 313 314 315 316 317 317 317 314 307 296 286 274 261 253 252 255 258 260 261 261 263 266 268 268 263 252 238 230 228 229 231 234 237 242 245 248 248 246 244 242 241 244 253 253 238 223 214 210 209 211 212 213 214 216 217 217 217 217 217 219 220 217 212 209 208 206 203 202 202 205 208 211 213 214 214 214 215
310 310 310 311 312 311 311 311 312 314 315 316 316 317 318 319 316 309 297 286 277 268 258 253 252 254 257 260 261 264 267 270 266 257 244 234 229 228 229 230 232 235 239 243 246 247 246 245 242 241 243 253 258 244 227 216 210 209 209 210 211 212 214 215 216 216 215 214 215 216 217 215 213 211 210 207 203 201 202 205 209 211 213 213 213 212
308 308 309 310 310 310 310 311 312 315 317 317 317 318 320 320 318 311 302 293 286 278 269 257 252 253 257 261 265 268 272 272 267 254 241 233 228 226 225 226 228 231 235 240 243 245 246 245 242 240 242 251 257 245 227 216 211 208 209 209 209 210 211 213 214 214 214 213 212 212 214 214 214 212 212 209 206 203 201 202 204 206 209 210 209 208
307 308 309 309 309 309 309 309 312 315 317 317 318 319 321 322 321 316 310 303 296 289 279 264 254 252 255 260 266 270 272 272 266 255 242 234 229 225 222 222 224 228 232 237 241 244 244 244 241 239 240 250 256 243 226 216 210 208 208 208 208 208 209 210 211 212 213 212 210 210 210 211 212 212 211 210 207 204 202 201 201 203 205 206 206 205
306 308 308 308 310 310 308 309 311 314 317 318 319 321 324 325 323 318 312 305 300 295 286 271 257 251 251 256 262 266 268 268 264 255 245 237 231 226 222 221 223 227 231 235 239 242 243 242 239 237 238 249 258 244 225 216 210 208 207 206 206 206 207 208 209 210 210 210 210 209 209 209 210 210 210 209 207 204 202 200 200 202 203 204 203 202
305 306 307 308 310 310 308 309 311 314 316 318 320 322 325 326 324 318 310 303 299 297 293 280 264 252 247 249 254 259 262 263 262 257 249 241 234 228 223 222 224 227 230 233 238 241 242 241 238 236 237 248 263 252 227 216 211 208 206 205 205 205 207 207 208 207 208 209 209 210 210 209 209 209 209 208 206 204 202 200 201 202 204 204 203 202
304 305 306 308 309 309 307 308 311 314 316 318 320 322 324 324 322 319 313 306 300 297 297 290 275 259 247 244 247 252 255 258 260 259 254 246 237 229 222 220 222 224 226 230 236 241 242 240 237 234 235 248 268 260 229 217 212 208 206 204 204 205 206 207 207 207 206 207 208 209 210 210 210 209 208 207 205 204 201 200 201 203 205 206 206 204
304 305 306 308 309 308 306 307 310 313 317 319 320 321 322 321 322 322 319 314 308 302 299 294 283 268 252 243 242 246 251 255 259 261 260 252 242 231 222 217 216 217 221 229 237 242 241 238 235 233 234 247 266 260 227 216 212 209 206 204 203 205 207 208 208 208 207 207 207 208 209 210 210 210 208 207 205 203 202 201 202 203 205 208 208 206
304 305 306 308 308 308 307 308 311 314 318 320 321 322 321 321 323 325 323 320 317 313 307 298 284 267 254 246 243 244 247 250 254 258 262 259 249 236 224 217 211 211 219 231 240 243 240 236 233 231 232 244 264 259 221 214 212 209 205 203 203 204 207 208 209 209 209 209 209 208 208 209 211 211 211 209 207 205 203 201 202 203 205 207 208 208
304 305 306 306 307 307 308 310 313 316 318 319 321 321 320 321 324 325 324 322 321 320 316 307 291 268 248 246 252 256 253 248 246 249 255 257 253 245 234 222 211 210 219 231 238 238 235 233 231 230 231 243 266 263 217 213 212 209 205 202 202 203 206 208 209 210 211 211 210 209 208 209 210 212 212 212 210 208 205 202 201 202 203 205 207 206
304 306 306 306 306 306 308 311 313 315 315 317 318 318 319 321 322 323 323 323 324 326 323 314 300 278 250 258 275 274 263 254 249 249 251 251 249 247 241 222 207 207 219 224 223 222 225 227 228 228 230 242 273 279 216 212 212 209 204 200 200 202 205 207 208 209 210 211 211 209 208 208 209 211 212 212 212 210 207 204 202 201 202 203 204 204
304 305 305 305 304 305 307 310 311 312 313 314 316 318 319 320 321 322 323 324 327 330 328 319 304 280 250 282 294 279 267 257 253 251 249 248 246 243 234 207 198 204 216 218 214 212 217 221 224 226 228 243 286 304 215 210 210 209 203 198 197 199 202 204 206 207 209 209 209 208 207 206 207 209 210 210 210 210 208 206 203 201 200 201 203 203
303 303 303 302 302 303 305 307 308 309 310 312 314 317 319 319 319 321 323 325 328 330 328 323 314 296 262 249 266 273 267 258 251 249 248 246 243 235 216 194 193 202 214 218 214 210 212 218 221 224 227 244 290 309 217 208 209 208 204 198 196 197 199 201 203 204 205 206 206 205 204 203 203 204 205 206 207 207 207 206 204 202 200 201 202 203
300 300 299 299 300 301 302 304 305 306 308 311 313 315 317 317 318 320 322 324 326 326 324 324 320 313 296 255 244 270 274 263 252 247 246 244 240 225 198 190 194 204 216 218 212 208 209 214 219 222 226 241 279 301 217 207 207 207 204 199 196 196 198 199 200 201 202 202 203 202 201 199 197 197 198 199 200 202 203 204 203 202 200 201 203 204
298 298 297 297 297 298 300 302 303 305 307 310 312 313 315 316 318 319 319 321 322 321 320 319 318 314 307 294 284 288 301 282 261 249 244 241 234 212 187 191 199 209 220 217 209 205 206 211 216 220 225 239 269 300 209 205 205 205 204 200 197 196 197 198 198 199 199 200 200 199 198 195 193 191 190 190 191 193 195 196 197 197 198 200 203 205
296 295 294 294 295 296 297 299 301 303 306 308 310 312 314 315 316 316 315 317 318 318 317 316 314 311 306 296 297 314 321 297 271 255 246 237 228 197 178 191 202 213 221 216 206 201 203 209 214 219 224 233 260 36 196 204 204 203 202 200 197 197 198 198 197 197 199 199 199 197 195 193 191 189 188 187 186 186 187 189 190 191 193 196 200 203
294 293 291 291 292 294 295 296 298 300 301 303 307 310 312 312 312 312 312 314 315 315 314 312 310 308 305 299 305 329 336 306 279 263 251 237 228 185 174 188 198 209 214 211 203 198 200 206 212 217 222 227 249 56 152 201 204 204 202 199 197 197 198 197 197 197 199 199 198 195 192 191 190 190 190 189 188 187 187 187 187 187 187 190 193 196
295 294 292 291 291 292 292 293 294 294 296 300 305 308 308 309 308 308 309 311 312 312 311 309 307 305 304 302 313 340 351 330 306 284 260 241 229 192 168 187 198 206 207 204 200 197 197 203 209 214 219 223 214 62 100 192 201 204 203 201 198 197 197 196 196 197 199 198 195 192 189 188 189 190 191 191 191 190 190 189 187 186 185 186 188 191
299 298 297 295 292 289 289 289 290 291 295 301 304 305 303 303 304 305 306 307 309 308 307 305 305 304 304 304 320 355 8 352 331 309 277 250 231 193 154 182 195 205 206 199 196 195 196 201 208 214 219 222 221 67 89 173 194 200 202 202 200 197 196 195 195 197 198 196 192 188 186 185 186 187 190 191 192 192 192 192 189 187 185 186 188 190
302 299 298 296 292 289 288 288 291 295 300 303 302 299 297 297 298 300 302 304 305 305 304 304 304 303 303 306 321 1 25 11 342 314 289 264 250 198 148 174 188 197 200 198 196 194 195 200 207 213 219 223 225 146 77 135 182 196 201 202 202 199 197 195 195 196 197 194 190 186 185 184 185 186 188 189 191 192 194 194 193 190 187 187 189 191
303 300 298 294 291 289 290 292 296 300 302 300 297 293 291 292 295 298 300 302 303 303 304 304 303 303 306 308 316 356 29 20 351 314 288 265 259 207 142 169 184 192 187 193 195 195 194 199 206 213 219 224 226 215 79 103 162 191 200 203 203 202 199 195 194 195 196 193 189 187 186 187 187 187 188 189 191 193 195 196 196 194 191 190 191 192
299 295 292 290 289 289 290 292 294 295 293 291 289 287 288 290 294 298 300 301 302 303 303 303 302 304 311 315 322 351 25 8 311 288 276 262 256 173 134 171 187 194 173 182 190 195 194 198 205 212 219 225 227 217 97 94 127 178 195 201 203 203 200 196 194 194 195 193 190 188 189 190 191 191 191 191 192 193 196 197 198 197 195 194 194 194
295 291 288 286 285 284 283 283 282 281 281 280 281 283 286 291 295 298 298 299 300 301 301 300 302 305 312 318 324 337 5 305 256 258 263 259 266 91 127 171 190 193 158 167 183 193 194 198 204 212 220 226 227 215 122 88 104 157 182 196 200 201 199 196 194 194 194 193 192 190 190 191 192 193 193 193 193 194 196 197 198 197 197 198 197 197
296 292 288 284 282 281 280 280 280 279 278 278 278 281 286 291 293 293 293 294 295 296 298 301 304 309 313 315 320 334 11 356 276 259 257 260 277 9 96 147 168 167 153 160 176 188 193 197 204 212 221 227 227 218 180 114 116 148 158 184 193 197 198 195 194 193 193 193 193 192 191 191 191 192 192 192 192 193 194 195 195 195 196 197 198 199
301 297 293 289 286 284 283 284 284 283 282 281 280 282 284 286 286 287 289 289 290 293 296 301 306 310 313 313 317 344 26 14 331 267 248 253 274 330 59 104 132 144 146 158 170 182 191 196 203 212 221 227 227 220 204 182 164 156 145 160 178 190 195 195 193 192 192 193 193 193 191 190 189 188 188 188 189 190 191 191 192 192 193 195 197 199
306 303 299 294 290 286 283 283 283 283 283 283 284 284 282 278 277 279 282 284 288 292 295 299 303 308 311 312 313 346 21 360 331 268 242 250 259 277 49 83 117 133 137 152 162 173 186 197 204 210 218 225 225 221 214 204 192 171 141 130 148 173 188 192 192 190 190 191 192 192 190 187 185 184 184 184 184 185 185 186 187 188 189 191 194 196
312 308 304 299 295 291 288 286 286 286 286 284 281 279 276 272 272 275 279 284 289 292 293 297 302 308 313 315 316 324 347 336 307 264 239 265 262 237 110 87 109 124 130 141 153 165 177 192 202 208 213 219 220 219 217 213 205 186 149 120 122 148 173 184 187 188 188 189 190 190 189 186 183 181 181 181 181 181 181 182 183 184 186 188 190 192
321 319 317 314 311 307 303 300 298 296 293 288 281 276 274 273 275 279 284 288 290 291 292 296 303 310 316 316 314 311 306 337 328 258 244 285 276 211 137 82 96 115 125 131 142 156 164 177 192 203 208 213 217 218 217 216 212 199 165 127 113 126 153 172 180 184 186 187 188 189 188 186 183 180 179 179 179 179 180 181 182 182 184 185 186 188
338 339 338 335 331 325 320 316 311 306 301 295 288 282 279 278 280 283 288 290 290 291 291 296 302 310 313 309 303 301 305 343 357 262 251 293 269 201 158 73 77 98 116 125 131 140 151 162 176 190 196 203 211 216 217 217 213 203 181 147 115 113 136 161 173 178 181 182 183 184 185 184 182 180 178 178 179 179 180 180 181 182 182 183 184 185
355 355 353 347 342 336 332 327 321 315 310 304 298 292 287 285 285 286 288 290 290 289 289 295 301 305 309 304 298 299 316 349 2 268 242 282 263 206 187 100 72 88 109 123 130 135 144 155 165 174 178 186 194 205 214 216 212 203 190 168 128 109 120 148 165 173 176 177 177 178 178 177 176 175 176 177 178 179 180 180 180 181 182 182 183 183
3 1 356 351 347 345 342 337 331 324 316 310 304 300 296 293 291 290 290 291 289 286 283 293 300 304 306 307 308 317 338 358 7 233 233 275 255 202 188 162 89 91 109 124 133 138 144 154 161 166 167 172 180 191 206 214 211 203 191 181 157 118 104 127 154 167 172 173 173 172 171 169 167 167 169 173 176 179 180 181 181 182 183 183 184 183
4 1 358 356 355 355 355 352 346 337 327 318 311 306 303 301 299 298 296 294 289 280 276 291 303 308 309 313 324 344 10 25 43 171 230 282 228 182 178 166 106 90 103 124 134 138 142 151 159 164 164 164 169 180 195 209 210 203 193 188 184 162 93 102 140 161 169 171 171 170 169 167 166 166 167 170 173 177 180 182 183 184 185 186 187 186
4 3 2 3 4 5 6 5 2 356 348 337 326 318 314 311 310 308 305 300 292 283 281 290 305 319 330 338 349 1 20 37 61 99 125 182 169 166 164 167 130 91 96 120 133 137 139 146 156 163 166 164 163 168 183 199 204 201 195 190 190 187 130 90 128 153 164 169 172 173 173 172 172 172 172 173 174 175 178 181 184 186 188 189 190 191
5 5 7 8 9 11 13 14 13 11 8 4 355 343 335 328 323 320 317 311 304 299 299 302 319 343 356 4 10 15 24 39 56 79 100 142 156 163 167 174 163 107 96 114 128 134 136 139 146 157 168 169 164 162 173 186 191 192 192 190 189 185 162 111 123 141 151 163 170 174 177 176 176 175 175 175 176 176 178 181 184 186 188 190 192 193
6 7 9 11 13 15 17 19 20 19 19 19 20 21 17 3 346 335 331 332 332 332 337 9 49 45 29 18 15 18 24 35 49 78 112 137 152 160 170 177 180 153 103 114 124 130 132 132 136 149 165 171 172 171 176 179 178 177 181 184 186 184 172 130 123 135 142 153 162 170 175 177 177 177 176 176 177 177 178 181 184 186 188 190 191 193
8 8 10 13 16 18 20 21 23 25 28 31 32 33 31 25 10 351 346 353 3 16 33 53 65 64 55 40 30 27 27 32 50 91 117 128 139 152 164 174 181 177 112 108 118 125 128 128 131 140 155 166 173 176 179 178 173 168 168 175 181 183 176 147 121 124 132 143 155 162 167 172 176 177 178 178 178 178 179 181 184 186 188 189 190 192
9 10 12 16 19 22 23 24 26 30 33 36 38 39 39 37 31 17 8 14 25 43 58 66 68 67 63 55 46 42 40 39 42 60 95 111 124 139 155 169 176 177 131 89 106 120 125 126 129 136 149 166 174 178 179 176 169 163 162 165 171 175 174 166 139 127 132 139 150 157 161 166 171 175 178 179 180 180 180 182 184 186 187 188 189 190
11 11 14 18 23 27 29 31 32 34 35 38 40 42 44 43 42 39 27 35 53 77 90 89 85 80 76 67 58 54 51 43 32 24 35 91 118 129 144 162 175 179 153 72 93 118 127 129 131 136 145 163 176 181 181 177 169 163 162 162 163 164 163 161 154 139 131 138 150 157 159 161 166 171 176 178 180 181 182 183 185 186 188 189 190 190
12 12 15 19 23 28 33 35 37 38 40 42 43 43 44 45 46 49 55 63 83 104 111 107 99 90 80 72 66 60 53 42 27 9 360 93 122 128 137 155 171 180 176 103 85 113 127 133 137 142 149 162 172 179 180 180 178 174 171 167 162 158 156 156 154 141 126 135 152 160 161 162 164 168 172 175 178 180 182 185 186 187 188 189 191 192
13 14 16 20 25 30 35 37 39 42 45 46 46 46 48 49 51 54 58 68 81 96 102 99 92 80 70 68 68 66 60 51 34 11 342 99 129 129 135 149 165 177 180 173 99 102 118 135 143 150 156 165 173 177 177 182 185 187 185 175 164 156 152 156 157 150 132 127 150 162 165 165 166 168 171 173 176 178 181 184 186 187 188 189 191 192
13 15 18 23 28 34 37 38 40 42 44 45 47 50 53 57 59 60 62 67 75 83 86 84 79 72 66 68 71 72 74 70 68 65 358 141 129 127 134 145 160 172 178 171 124 90 100 129 146 155 162 170 177 181 183 185 187 189 190 184 173 162 157 159 161 159 149 133 140 160 169 168 168 169 169 172 175 178 181 182 184 185 186 188 190 191
15 16 19 24 29 32 34 36 39 42 44 46 48 51 55 59 62 63 63 65 68 68 67 65 62 59 63 76 86 83 82 93 109 137 151 146 130 124 130 140 153 166 176 173 147 101 98 124 146 157 164 172 178 182 184 186 187 187 188 187 180 169 160 160 163 165 162 151 144 158 171 172 171 170 170 171 174 178 180 181 182 183 184 187 189 191
17 17 20 24 28 31 34 37 40 42 45 47 49 52 56 59 62 63 63 63 60 58 57 56 53 50 52 60 71 84 94 102 113 129 142 145 133 123 122 131 144 159 171 177 176 151 113 131 147 156 162 168 173 176 180 183 184 185 188 188 184 175 165 165 168 171 170 165 161 165 174 175 174 172 171 171 173 175 178 179 180 181 183 185 188 190
18 18 21 24 28 32 35 38 41 43 45 47 50 52 55 58 60 61 62 62 59 55 54 54 52 50 48 49 56 71 91 104 110 118 132 136 131 121 116 122 134 149 162 173 182 186 163 145 152 157 161 163 164 167 173 179 183 184 187 188 186 181 176 175 175 176 175 175 174 176 180 181 179 176 173 172 172 173 175 177 179 180 182 184 186 188
19 20 22 25 29 32 36 38 40 42 45 47 50 52 54 56 57 58 60 61 58 56 53 53 54 54 52 53 55 64 80 98 108 115 124 127 124 119 115 118 126 138 150 164 179 189 187 164 159 161 162 162 161 162 166 173 179 183 186 188 188 186 184 182 182 182 183 187 191 194 192 188 184 179 174 170 170 171 173 175 177 179 180 182 184 186
22 23 24 27 30 32 35 39 41 42 43 45 48 50 53 55 56 57 58 58 57 55 53 54 55 56 57 58 60 67 81 98 110 118 123 124 124 121 119 120 124 130 138 150 167 181 182 165 160 162 162 162 162 162 164 169 175 181 185 188 189 189 188 187 187 189 192 197 202 205 203 195 193 188 179 171 168 168 171 172 174 176 179 181 183 184
24 25 27 29 31 33 36 39 41 41 42 43 45 47 50 54 56 58 58 58 57 56 53 54 54 57 58 60 62 68 81 100 112 119 123 125 126 126 125 126 127 128 130 138 151 164 168 158 155 157 160 162 162 162 163 166 171 177 181 185 187 189 189 189 190 192 196 199 204 207 207 202 205 206 194 180 172 169 169 170 172 174 177 179 181 183
25 27 28 30 31 34 37 39 41 42 42 42 43 45 48 51 54 58 60 60 59 57 55 54 54 56 58 59 60 63 72 88 103 112 118 124 127 129 129 131 130 128 128 134 143 153 157 151 145 144 150 155 159 161 161 163 167 172 175 179 183 187 189 190 191 193 196 199 202 204 205 202 202 205 205 193 180 172 168 168 169 172 175 177 179 181